Jackson, TN

10:56 PM CST on November 19, 2019 (GMT -0600)
McKellar-Sipes Regional

Weather History for KMKL - September, 2019

Change the Weather History Date:

Sunday, September 29, 2019

  Actual Average Record
Temperature  
Mean Temperature 80 °F 66 °F  
Max Temperature 93 °F 79 °F 98 °F (1953)
Min Temperature 66 °F 54 °F 36 °F (1967)
Degree Days  
Heating Degree Days 0 3  
Month to date heating degree days 0 22  
Since 1 July heating degree days 0 22  
Cooling Degree Days 15 4  
Month to date cooling degree days 389 217  
Year to date cooling degree days 1850 1640  
Growing Degree Days 30 (Base 50)    
Moisture  
Dew Point 69 °F    
Average Humidity 76    
Maximum Humidity 100    
Minimum Humidity 45    
Precipitation  
Precipitation 0.00 in 0.14 in 1.75 in (1989)
Month to date precipitation 1.07 3.25  
Year to date precipitation 47.78 39.12  
Sea Level Pressure  
Sea Level Pressure 30.12 in    
Wind  
Wind Speed 2 mph ()    
Max Wind Speed 12 mph    
Max Gust Speed 16 mph    
Visibility 9.3 miles    
Events      
T = Trace of Precipitation, MM = Missing Value Source: Averaged Metar Reports

Daily Weather History Graph

Daily Weather History Graph

Search for Another Location

Airport or City:

Astronomy

Sep. 29, 2019 Rise Set
Actual Time 6:48 AM CDT 6:42 PM CDT
Civil Twilight 6:23 AM CDT 7:08 PM CDT
Nautical Twilight 5:53 AM CDT 7:37 PM CDT
Astronomical Twilight 5:24 AM CDT 8:07 PM CDT
Moon 7:39 AM CDT (9/29) 7:44 PM CDT (9/29)
Length of Visible Light 12h 44m
Length of Day
11h 53m
New Moon, 1% of the Moon is Illuminated
Sep 29
New Moon
Oct 5
First Quarter
Oct 13
Full
Oct 21
Last Quarter
Oct 27
New

Hourly Weather History & Observations

Time (CDT) Temp. Heat Index Dew Point Humidity Pressure Visibility Wind Dir Wind Speed Gust Speed Precip Events Conditions
12:53 AM 73.0 °F - 66.9 °F 81% 30.09 in 10.0 mi South 4.6 mph - N/A   Clear
1:53 AM 70.0 °F - 66.9 °F 90% 30.10 in 10.0 mi Calm Calm - N/A   Clear
2:53 AM 69.1 °F - 68.0 °F 96% 30.09 in 10.0 mi Calm Calm - N/A   Clear
3:53 AM 66.9 °F - 66.0 °F 97% 30.09 in 7.0 mi Calm Calm - N/A   Clear
4:53 AM 68.0 °F - 66.9 °F 96% 30.12 in 10.0 mi Calm Calm - N/A   Clear
5:53 AM 66.9 °F - 66.9 °F 100% 30.13 in 6.0 mi Calm Calm - N/A   Clear
6:53 AM 68.0 °F - 66.9 °F 96% 30.15 in 7.0 mi Calm Calm - N/A   Clear
7:53 AM 71.1 °F - 69.1 °F 93% 30.17 in 10.0 mi Calm Calm - N/A   Clear
8:53 AM 79.0 °F - 70.0 °F 74% 30.18 in 10.0 mi South 4.6 mph - N/A   Clear
9:53 AM 82.9 °F 87.0 °F 70.0 °F 65% 30.18 in 10.0 mi SW 6.9 mph - N/A   Clear
10:53 AM 88.0 °F 93.8 °F 71.1 °F 57% 30.17 in 10.0 mi Variable 3.5 mph - N/A   Clear
11:53 AM 90.0 °F 95.4 °F 70.0 °F 52% 30.16 in 10.0 mi SSW 5.8 mph - N/A   Clear
12:53 PM 91.9 °F 97.4 °F 70.0 °F 48% 30.14 in 10.0 mi SSW 8.1 mph - N/A   Clear
1:53 PM 91.9 °F 96.9 °F 69.1 °F 47% 30.12 in 10.0 mi SSW 9.2 mph - N/A   Clear
2:53 PM 91.9 °F 96.9 °F 69.1 °F 47% 30.10 in 10.0 mi South 5.8 mph - N/A   Partly Cloudy
3:53 PM 93.0 °F 97.9 °F 69.1 °F 45% 30.09 in 10.0 mi SSW 6.9 mph - N/A   Partly Cloudy
4:53 PM 93.0 °F 99.0 °F 70.0 °F 47% 30.08 in 10.0 mi South 4.6 mph - N/A   Partly Cloudy
5:53 PM 90.0 °F 95.4 °F 70.0 °F 52% 30.08 in 10.0 mi SSE 4.6 mph - N/A   Clear
6:53 PM 82.0 °F 86.7 °F 72.0 °F 71% 30.08 in 10.0 mi Calm Calm - N/A   Clear
7:53 PM 77.0 °F - 72.0 °F 84% 30.09 in 10.0 mi Calm Calm - N/A   Clear
8:53 PM 75.0 °F - 73.0 °F 94% 30.11 in 10.0 mi SSW 3.5 mph - N/A   Clear
9:53 PM 73.0 °F - 71.1 °F 93% 30.11 in 8.0 mi Calm Calm - N/A   Clear
10:53 PM 72.0 °F - 71.1 °F 97% 30.12 in 7.0 mi Calm Calm - N/A   Clear
11:53 PM 71.1 °F - 70.0 °F 96% 30.11 in 8.0 mi Calm Calm - N/A   Clear